Regional Weather Roundup
Issued by NWS Charleston, SC

Current Version | Previous Version | Text Only | Print | Product List | Glossary Off
Versions: 1 2 3 4 5 6 7 8 9 10 11 12 13 14 15 16 17 18 19 20 21 22 23 24 25 26 27 28 29 30 31 32 33 34 35 36 37 38 39 40 41 42 43 44 45 46

000
ASUS42 KCHS 280712
RWRCHS

REGIONAL WEATHER ROUNDUP
NATIONAL WEATHER SERVICE CHARLESTON SC
300 AM EDT TUE MAR 28 2017

NOTE: "FAIR" INDICATES FEW OR NO CLOUDS BELOW 12,000 FEET WITH NO
SIGNIFICANT WEATHER AND/OR OBSTRUCTIONS TO VISIBILITY.

NOT ALL STATIONS ARE QUALITY CONTROLLED. USE DATA WITH CAUTION...
ESPECIALLY DEWPOINT OBSERVATIONS.

SCZ027-030-031-034>040-042>050-280800-
...SOUTHEAST SOUTH CAROLINA...

CITY           SKY/WX    TMP DP  RH WIND       PRES   REMARKS
N CHARLESTON   PTCLDY    64  59  83 SW7       30.01F
WATERFRONT PRK   N/A     66  62  87 SW6       30.00F
JOHNS ISLAND   FAIR      64  63  94 CALM      30.01F
PINOPOLIS        N/A    N/A N/A N/A CALM      29.92F
MONCKS CORNER  FAIR      57  55  94 CALM      30.01S
SUMMERVILLE    FAIR      59  59 100 CALM      30.02S
BEAUFORT MCAS  CLOUDY    67  63  87 S5        30.02R
BEAUFORT ARPT  CLOUDY    64  61  88 S7        30.01S
HILTON HEAD IS CLEAR     68  61  77 S9G16     30.03S
WALTERBORO     CLOUDY    61  59  94 S3        30.01F
ALLENDALE      PTSUNNY   64  59  82 VRB5      30.00S

...SOUTHERN MIDLANDS AND PEE DEE...

CITY           SKY/WX    TMP DP  RH WIND       PRES   REMARKS
GEORGETOWN     PTSUNNY   61  59  94 SW3       30.02S
KINGSTREE      FAIR      61  55  82 SE6       30.00F
ORANGEBURG     MOCLDY    63  58  83 SW8       30.00S
BARNWELL       CLOUDY    68  61  77 S6        30.00F
AIKEN          FAIR      63  55  77 S8        30.01F
MANNING        FAIR      63  57  82 SW3       30.00F
COLUMBIA       CLOUDY    66  57  72 SW8       29.97S
SUMTER         CLEAR     64  57  79 S8        29.97S
FLORENCE       PTCLDY    61  58  90 S5        29.99F
MYRTLE BEACH   CLOUDY    66  61  84 SW8       30.01F
N MYRTLE BEACH CLOUDY    66  61  84 S10       29.99F

$$

GAZ063-065-086>088-099>101-113>116-118-119-134>141-150-280800-
...SOUTHEAST GEORGIA...

CITY           SKY/WX    TMP DP  RH WIND       PRES   REMARKS
SAVANNAH ARPT  CLOUDY    66  60  81 S7        30.02F
HUNTER AAF     CLOUDY    67  64  90 SW3       30.00S
FORT STEWART   CLOUDY    67  60  78 S6        30.00F
STATESBORO     PTCLDY    66  60  82 SW5       30.01S
SYLVANIA       PTSUNNY  N/A N/A N/A SW3       30.03R
CLAXTON        FAIR     N/A N/A N/A S5        30.01F

...CSRA...CENTRAL AND FAR SOUTHEAST GEORGIA...

CITY           SKY/WX    TMP DP  RH WIND       PRES   REMARKS
THOMSON        LGT RAIN  66  60  83 W6        30.02S
AUGUSTA-BUSH   CLOUDY    69  57  65 S8        29.97F
AUGUSTA-DANIEL MOCLDY    68  55  63 S8        29.99F
SWAINSBORO     FAIR      64  55  72 S3        30.01S
VIDALIA        CLOUDY    66  59  77 S3        30.01S
EASTMAN        FAIR      65  52  62 CALM      30.03S
HAZLEHURST     FAIR      67  60  78 S5        30.00S
ALMA           PTCLDY    65  59  81 S6        30.01F
WAYCROSS       PTCLDY    69  62  77 S7        30.02F
JESUP          CLOUDY    68  59  73 S7        30.03F
BAXLEY         FAIR      66  63  88 S3        30.01F
BRUNSWICK      CLOUDY    68  64  88 SW5       30.04S
SAINT SIMONS   CLOUDY    67  63  87 SW6       30.02F

$$

SCZ027-028-034-036>038-045-046-048>050-GAZ119-141-280800-
...LAKE AND SUPPLEMENTAL COASTAL OBSERVATIONS...

STATION/POSITION TIME  TEMP    WIND        PRES    WAVE   SWELL
                       AIR SEA DIR/SP/G            HT/PER HT/PER/DIR
                 (UTC) (F)     (DEG/KT/KT) (MB)    (FT/S) (FT/S/D)
WINYAH BAY       NOT AVBL
LAKE MURRAY      0620   65     210/  8/ 10 1014.6
ACE BASIN NERRS  NOT AVBL
FORT PULASKI     0642   66 64  220/  6/  9 1016.9S
SAPELO ISLAND    0600   67     210/  6     1017.0

$$

ANZ835-935-AMZ111-154-330-350-352-354-370-450-454-472-280800-
...C-MAN AND BUOY OBSERVATIONS...

STATION/POSITION TIME  TEMP    WIND        PRES    WAVE   SWELL
                       AIR SEA DIR/SP/G            HT/PER HT/PER/DIR
                 (UTC) (F)     (DEG/KT/KT) (MB)    (FT/S) (FT/S/D)
BUOY 41004       0550   72 70  180/ 12/ 14 1016.8    5/ 9   3/130/ 9
BUOY 41008       0550   65 63  190/  6/  8 1017.1    3/10   3/100/10
FOLLY BEACH CMAN 0600   66     190/  7/  8 1017.2F
CAPERS NEARSHORE 0608   65     180/  8/ 10 1016.3F
FRIPP NEARSHORE  0608   64 63  190/  8/ 10 1016.4F


STATION/POSITION TIME  TEMP    WIND        PRES    WAVE   SWELL
                       AIR SEA DIR/SP/G            HT/PER HT/PER/DIR
                 (UTC) (F)     (DEG/KT/KT) (MB)    (FT/S) (FT/S/D)
5E ST. MARYS GA  0630      67                N/A     3/11   2/120/11
FRYING PAN BUOY  0650   72 74  200/ 14/ 17 1016.4F   5/10   5/140/10
BUOY 41025       0650   71 74  190/ 17/ 21 1015.8F   5/ 8   3/120/ 8
CAPE LOOKOUT NC  0600   66     200/  7/  9 1016.1F
BUOY 41002       0650   67 72  130/  4/  6 1017.4F   5/10   5/110/10
BUOY 41010       NOT AVBL
ST AUGUSTINE FL  0700   66 70  260/  5/  6 1017.9S


$$




USA.gov is the U.S. government's official web portal to all federal, state and local government web resources and services.